sat.trackr.live / text

‹ back to catalog

STARLINK-35510

NORAD 66397 · 2025-257T

PAYLOAD ACTIVE UNKNOWN

§ Identity

Operator
Country
US
Launch date
2025-11-09
Launch site
AFETR
Launch vehicle
Mass (kg)
RCS (m²)

Purposes: comms

External: N2YO · Heavens-Above · Gunter

§ Orbital elements

Epoch: 2026-05-24T22:49:10.201728Z

Period
94.10 min
Inclination
53.1589°
Eccentricity
0.0001628
Mean motion
15.30207156 rev/d
Perigee alt
474.1 km
Apogee alt
476.3 km
Semi-major
6,853.3 km
B*
4.0700e-4
RAAN
222.4944°
Arg perigee
45.3308°
Mean anomaly
314.7826°
Rev number
3,141

§ Raw data

STARLINK-355101 66397U 25257T   26144.95081252  .00011717  00000+0  40700-3 0  99912 66397  53.1589 222.4944 0001628  45.3308 314.7826 15.30207156 31411

JSON: /api/v1/satellites/66397 · /tle

For live sub-satellite position, see the globe view (requires WebGL).

§ Visibility from observer

Set your observer location to see the next 7 days of passes ≥ 10°. The values pass through the URL so the page stays shareable.

No JS? Fill the form by hand. The geolocation button needs JavaScript.